Location: Bathurst
(33.4193°S, 149.5775°E)
Time: 16:31:14
(UTC+10:00)

A-11 Canister half - Pass Details

Date: 22 June 2021
Orbit: 1513 x 1687 km, 47.2° (Epoch: 26 July)

Event Time Altitude Azimuth Distance (km) Brightness Sun altitude
Rises 17:16:42 0° 272° (W) 4,680 13.0 -3.6°
Reaches altitude 10° 17:19:58 10° 265° (W) 3,716 12.1 -4.2°
Maximum altitude 17:28:45 42° 196° (SSW) 2,137 9.7 -5.9°
Drops below altitude 10° 17:37:52 10° 127° (SE) 3,847 10.5 -7.6°
Enters shadow 17:38:36 - 125° (SE) 4,058 10.6 -7.8°
